GEFSNE_500_meanwind_294.txt.gz
Wind_Speed
11 11 12 12 13 14 14 14 13 13 13 14 15 15 16 16 16 17 16 17 17 17 18 19 19 18 18 19 19 18 18 18 18 19 19 21 21 22
13 13 13 13 14 15 15 15 15 15 15 15 15 16 17 18 18 18 19 19 18 19 19 19 19 20 20 20 19 19 19 20 20 20 20 21 22 23
14 14 15 15 16 16 17 16 16 16 16 17 18 17 18 19 19 20 20 20 19 20 20 21 21 21 21 21 21 21 21 21 21 21 22 22 22 23
16 16 16 16 17 18 18 18 18 18 18 19 19 20 20 20 20 21 21 21 21 21 22 22 22 22 22 22 22 22 22 22 22 23 23 24 24 24
18 18 18 18 19 19 20 20 20 20 20 20 20 21 21 21 22 23 22 23 23 23 22 23 23 23 23 23 24 24 24 23 24 24 25 25 25 25
19 20 20 20 21 21 22 22 22 22 22 22 22 22 22 22 23 23 24 24 25 24 23 24 24 25 25 25 25 25 24 24 25 25 26 26 26 26
21 22 22 22 22 23 24 24 24 24 24 24 24 24 24 24 25 25 26 26 27 26 26 26 26 25 25 25 26 26 25 26 26 27 27 26 26 26
23 23 23 23 23 24 25 26 26 25 25 25 25 25 26 26 26 27 28 28 28 28 27 28 28 27 25 26 26 26 26 26 27 27 27 26 26 26
24 24 24 24 25 25 26 26 26 26 26 27 27 27 28 28 28 28 29 30 29 29 28 28 27 27 27 27 27 27 27 27 27 27 27 27 26 26
26 25 26 26 26 27 28 28 28 28 28 28 29 29 30 30 30 30 30 30 30 30 30 29 27 27 27 28 29 29 29 29 29 28 28 28 28 28
27 27 28 28 28 29 29 30 30 30 30 30 30 30 30 31 32 32 32 32 31 30 30 30 29 29 29 29 30 30 30 30 29 29 30 30 29 28
29 29 29 29 29 30 31 31 31 30 30 30 31 31 32 32 33 33 33 33 32 31 31 30 30 30 30 30 30 30 30 30 30 30 30 31 30 29
30 30 30 30 30 31 32 33 33 32 32 32 32 33 33 33 33 34 33 34 34 33 32 31 31 31 31 31 31 31 31 30 30 31 31 31 30 29
31 31 32 32 32 32 33 34 34 34 34 34 34 34 35 35 35 35 35 35 35 34 33 33 32 32 32 32 32 32 31 30 31 31 31 31 30 28
32 33 34 34 34 34 35 35 35 35 35 35 35 35 35 35 36 35 35 35 35 34 34 33 33 33 33 32 32 32 31 30 30 30 31 30 29 28
34 35 35 35 36 36 36 37 36 36 36 36 36 36 36 36 36 36 35 35 34 34 33 33 33 33 33 33 32 32 31 30 29 30 30 30 30 29
35 35 35 35 36 36 36 36 36 36 37 36 36 36 36 36 36 35 35 35 34 33 32 33 33 33 33 33 33 32 32 31 31 31 31 31 30 29
35 35 35 35 36 36 37 36 36 35 35 36 36 36 36 35 34 34 33 33 33 32 32 32 33 33 33 33 33 33 33 32 32 32 31 31 29 28
36 36 36 36 36 36 36 36 35 35 35 35 35 34 34 33 32 32 32 32 33 32 32 32 33 33 33 32 32 33 33 32 31 31 31 29 28 27
38 38 37 36 36 36 36 36 35 36 36 35 34 33 33 32 32 32 32 32 32 32 32 32 32 31 31 31 31 31 31 31 30 30 30 29 27 26
39 38 37 37 37 36 36 37 37 36 36 35 33 32 32 31 31 32 32 32 31 31 30 30 30 30 30 30 30 30 30 30 30 29 28 26 25 24
41 40 39 39 38 37 37 37 36 35 34 33 32 31 31 31 32 32 31 31 30 30 29 29 29 30 30 29 29 28 28 28 28 26 25 25 25 24
41 41 40 39 38 37 37 37 36 34 33 33 33 32 32 32 32 31 31 30 29 29 29 29 29 29 28 28 28 27 26 26 26 25 24 25 25 24

GEFSNE_500_meanwind_300.txt.gz
Wind_Speed
12 13 13 13 13 13 12 12 13 13 12 12 13 13 14 14 14 14 15 15 15 17 18 18 18 18 18 18 19 19 19 19 20 20 20 20 20 21
14 14 14 14 14 14 14 15 15 15 14 14 15 15 15 16 15 16 16 16 17 18 18 19 19 19 19 20 20 20 20 21 21 21 21 21 21 21
15 15 15 16 16 16 16 15 15 16 16 17 17 16 17 17 17 17 17 18 18 18 19 20 21 21 21 21 21 22 22 22 22 22 22 22 22 22
16 16 17 18 17 17 17 17 17 17 17 17 18 18 18 18 19 19 19 19 20 20 20 21 21 21 22 22 22 22 23 23 23 23 22 23 23 24
17 17 18 18 18 18 18 18 19 18 18 19 19 19 19 19 19 20 21 21 21 22 22 22 22 22 22 23 23 23 23 23 23 23 23 23 24 25
19 19 19 20 19 20 20 20 21 20 21 21 21 21 22 22 21 22 22 23 23 23 23 23 23 24 23 24 24 25 25 25 25 24 25 25 25 26
20 20 20 20 21 21 22 22 22 22 23 23 23 23 24 24 24 24 24 24 25 25 25 25 25 25 25 25 25 26 26 26 26 26 26 26 26 26
21 22 22 23 23 24 24 24 23 23 24 25 25 25 25 26 26 26 26 25 26 27 27 27 27 27 27 27 27 26 26 27 27 27 27 27 27 27
23 24 24 25 25 26 27 27 26 25 26 27 27 27 27 27 28 28 27 26 26 27 27 27 27 27 27 27 27 27 27 27 28 28 28 27 27 27
25 25 25 26 27 28 29 29 28 27 28 29 29 29 29 29 29 29 29 28 28 28 28 28 29 28 28 28 27 28 28 28 28 28 28 27 27 27
26 27 27 27 28 29 29 29 29 29 30 30 30 29 30 31 31 31 30 30 30 30 30 30 29 30 29 29 29 29 29 29 29 28 28 28 28 28
27 28 29 29 29 30 29 29 30 30 31 32 32 32 32 33 33 33 32 32 31 31 31 31 31 31 29 29 30 30 30 29 29 29 29 29 29 28
29 30 31 31 31 31 32 32 32 31 32 33 34 34 34 34 35 35 34 34 33 32 32 33 33 32 31 31 31 30 30 30 30 30 30 30 30 30
32 32 33 33 33 33 33 33 33 33 33 33 34 34 35 35 35 36 35 35 34 34 33 34 34 34 33 33 32 31 31 30 31 31 31 31 31 30
34 34 34 34 34 35 35 34 34 34 33 33 33 34 35 35 35 35 36 35 34 34 34 33 34 34 34 33 33 32 31 31 31 32 32 32 32 31
35 35 35 35 35 36 35 35 34 34 34 34 34 34 35 35 35 35 35 34 34 34 34 35 35 34 34 34 33 32 32 32 32 32 31 31 31 31
37 36 36 36 36 36 36 35 35 34 33 34 34 34 34 35 35 35 35 34 34 34 34 35 35 35 34 33 33 32 32 32 32 32 32 31 30 29
37 36 36 36 36 36 36 35 35 34 34 34 34 34 34 33 33 33 34 33 34 34 34 35 35 34 34 33 33 32 32 32 32 32 31 31 30 29
37 37 36 36 36 36 36 36 36 35 35 35 35 34 34 33 33 33 33 33 33 33 34 34 35 34 33 33 32 31 31 31 32 31 31 31 30 30
38 38 37 37 37 37 37 37 36 35 35 35 35 34 34 34 34 34 34 34 34 34 34 34 34 34 33 33 32 30 31 32 31 31 32 32 31 30
39 39 39 39 38 38 37 36 36 36 35 35 35 34 34 34 34 33 33 33 34 34 34 33 33 33 32 32 32 31 31 31 31 31 31 30 29 29
39 39 39 39 39 39 38 37 36 36 36 35 35 34 34 34 33 32 32 32 33 32 32 31 30 30 30 31 31 30 30 30 30 30 29 28 28 27
38 38 38 38 38 38 38 37 37 36 36 36 36 35 34 33 32 32 32 32 31 31 30 29 28 28 29 29 29 28 29 29 29 28 27 26 26 25

GEFSNE_500_meanwind_306.txt.gz
Wind_Speed
14 15 15 15 15 16 16 16 16 16 16 16 16 16 16 17 17 17 18 17 18 18 19 19 19 19 19 20 20 21 20 20 20 21 21 21 21 21
15 16 16 16 17 17 17 17 17 17 17 17 17 17 18 18 18 19 18 19 19 20 20 20 20 20 20 21 21 21 21 22 22 22 22 22 22 22
16 16 16 17 17 18 18 18 18 18 18 18 18 18 18 19 20 20 20 20 20 21 21 22 22 22 22 22 22 23 23 22 22 23 23 23 24 24
17 17 17 18 18 18 19 19 19 19 19 19 20 20 19 20 20 20 21 21 22 22 23 23 23 23 24 24 24 24 23 23 24 24 24 25 25 25
19 19 19 19 19 20 20 20 21 21 22 22 21 22 22 22 21 22 22 23 24 24 24 24 24 24 25 25 26 25 26 26 26 26 26 26 26 26
20 20 20 20 21 21 21 22 22 23 24 24 24 24 24 24 23 24 25 25 26 26 25 26 25 25 25 26 27 27 27 27 27 27 27 27 27 27
22 22 22 23 23 23 24 24 25 25 26 26 26 26 26 26 26 26 26 27 27 28 27 27 27 27 28 28 28 28 28 28 28 28 27 27 27 28
23 24 25 25 25 26 26 27 27 27 28 28 27 28 28 29 29 28 28 28 29 29 29 29 29 28 29 29 29 29 29 29 28 28 28 29 29 29
25 26 27 27 27 28 28 28 29 29 29 29 29 30 30 30 30 30 30 30 30 31 31 30 30 30 30 30 30 30 30 30 30 29 30 30 30 31
27 27 28 29 30 30 30 30 30 31 31 31 31 32 32 32 32 32 33 32 32 32 32 31 31 31 31 31 31 32 32 32 32 31 31 32 32 31
28 29 30 30 31 32 32 32 32 32 33 33 33 33 34 34 34 34 34 34 33 33 33 33 33 33 33 32 32 33 33 33 33 33 33 33 32 31
31 31 32 33 33 33 33 33 33 33 34 34 35 35 36 36 36 36 36 35 34 34 34 35 34 35 34 33 33 33 33 34 34 34 34 33 32 32
34 34 35 34 34 34 35 34 35 35 35 36 36 36 36 37 37 37 37 36 35 35 35 36 35 35 35 34 34 34 34 34 34 34 33 32 32 32
36 35 35 35 36 36 36 36 36 36 36 36 36 36 36 37 37 36 37 37 36 36 36 36 36 36 35 35 34 34 34 34 34 34 34 34 34 34
37 37 37 37 37 36 36 36 37 36 36 36 37 36 36 36 37 36 37 37 36 36 37 36 37 37 37 36 35 35 34 34 34 34 35 35 35 35
39 39 38 38 37 37 37 36 37 36 36 36 36 36 37 37 36 36 36 36 36 36 37 37 37 37 37 37 36 34 34 34 34 35 35 35 35 34
40 40 39 38 38 38 38 37 37 37 37 36 36 36 35 35 35 35 36 36 36 35 35 36 36 37 37 37 36 34 34 34 34 35 35 35 34 33
41 40 39 38 39 39 39 38 38 38 38 37 37 35 35 35 35 36 36 37 36 36 35 35 35 36 36 35 35 34 33 33 33 33 33 34 33 33
41 40 40 39 39 39 39 39 38 38 38 38 37 36 35 35 35 36 36 37 37 36 36 36 35 35 34 33 32 32 32 32 32 32 32 32 32 31
41 41 40 39 40 40 40 39 38 37 38 38 37 36 36 36 36 36 36 37 37 36 35 35 35 35 34 33 31 30 30 31 31 32 31 31 30 30
40 40 40 39 39 39 39 38 37 36 36 36 37 37 37 37 36 36 36 36 35 35 34 34 34 34 33 32 31 30 30 30 31 31 30 29 29 29
40 40 40 39 39 39 38 36 36 36 36 36 36 37 37 36 36 35 35 35 34 34 34 33 32 32 32 31 31 30 30 30 30 30 29 28 28 27
39 39 39 38 38 38 37 36 36 36 36 35 35 36 36 36 35 35 35 34 34 33 32 32 31 31 31 31 30 29 28 29 30 29 27 27 27 26

GEFSNE_500_meanwind_312.txt.gz
Wind_Speed
14 15 15 15 15 16 17 16 17 17 18 18 18 18 18 18 18 18 18 18 19 19 19 19 20 20 20 20 20 20 20 21 20 20 21 21 20 21
16 16 16 16 17 18 18 18 19 19 20 20 20 20 20 20 20 20 21 20 20 20 20 20 21 21 21 21 22 22 22 22 22 22 22 22 22 22
17 17 18 18 18 19 20 20 20 21 21 21 22 22 22 22 22 22 22 23 23 22 22 22 22 23 23 23 23 23 23 23 23 23 23 23 23 23
18 19 19 20 20 21 21 22 22 22 23 23 23 24 24 24 24 24 24 24 24 24 24 25 25 25 25 24 24 24 24 24 24 24 24 24 24 24
21 21 21 22 22 22 23 24 24 24 24 24 25 26 26 26 26 26 25 26 26 27 27 27 26 26 26 26 26 26 26 26 25 25 26 26 26 26
23 23 24 24 24 24 25 26 26 26 26 26 27 27 27 28 28 28 28 27 27 28 28 27 27 27 27 27 27 27 27 27 28 28 28 28 27 27
25 25 25 26 26 27 28 28 28 28 28 28 28 28 28 29 29 29 30 29 29 29 29 29 29 29 29 29 28 28 28 29 29 29 29 29 29 28
26 27 27 27 28 28 29 29 30 31 30 29 29 29 29 29 30 30 30 29 29 30 30 29 29 29 29 29 29 30 30 30 30 30 30 30 30 30
29 29 29 29 29 29 30 30 29 29 30 30 30 30 30 31 31 31 31 30 30 30 30 30 30 30 29 29 30 30 31 32 32 32 32 31 31 30
30 30 30 30 30 30 31 30 30 30 30 31 31 31 32 31 32 32 32 31 31 31 31 31 31 31 30 31 31 32 32 33 33 32 32 31 31 31
32 32 32 32 32 32 32 33 32 32 32 33 33 32 32 33 32 32 32 32 32 32 31 31 31 33 33 33 33 33 34 34 34 33 33 32 32 31
34 34 34 34 34 34 34 34 34 34 34 34 34 34 35 34 33 34 33 33 33 33 33 32 32 33 32 32 33 33 34 35 34 34 33 33 33 33
36 36 36 35 35 36 36 35 35 36 36 35 35 35 35 35 34 34 34 33 33 33 33 33 33 33 33 32 33 34 34 34 34 34 33 33 33 33
38 38 37 37 37 36 36 36 36 36 36 36 35 35 36 36 35 34 34 33 33 34 33 34 34 34 34 33 33 34 34 34 34 33 33 33 34 34
38 37 37 37 36 36 36 35 35 36 36 36 36 35 36 36 36 35 35 34 34 34 34 34 34 35 35 34 34 34 34 34 34 33 33 33 33 33
39 38 38 38 37 36 37 37 37 36 36 36 36 36 36 36 36 35 35 34 34 34 34 34 34 35 35 35 35 35 35 34 33 33 32 32 32 33
39 38 38 39 38 38 37 37 37 37 37 37 36 36 36 36 36 36 35 35 35 35 35 34 35 35 35 35 35 35 35 34 33 33 32 31 31 32
39 39 38 38 38 37 37 37 36 36 36 36 36 36 36 35 35 35 35 35 35 35 34 34 34 34 35 34 33 33 33 33 33 33 32 31 31 32
39 38 38 37 37 36 36 36 36 36 36 36 35 35 35 34 34 34 34 34 34 34 35 35 35 34 34 32 32 32 32 31 32 31 31 31 31 31
38 37 37 37 37 37 38 37 37 36 35 35 34 35 34 34 34 33 33 33 33 33 33 34 33 33 33 33 32 31 31 31 31 30 30 30 30 30
37 36 37 38 38 38 38 37 36 35 34 34 34 34 33 33 33 33 33 32 33 33 32 32 32 32 32 33 32 31 30 30 30 29 30 31 30 29
35 35 36 37 36 35 35 34 34 33 32 32 31 31 31 31 31 31 31 31 31 31 31 31 31 31 31 31 30 29 29 29 29 30 30 31 30 30
34 34 34 34 33 33 32 32 31 31 30 30 29 29 29 30 30 30 30 31 30 30 30 30 31 30 30 30 30 29 29 29 29 30 30 31 31 29

GEFSNE_500_meanwind_318.txt.gz
Wind_Speed
16 17 18 19 19 19 19 20 20 19 19 20 20 20 20 19 19 18 19 19 20 20 20 20 21 21 21 21 20 20 20 20 20 20 20 21 20 20
18 19 20 20 20 20 21 21 21 21 21 22 21 21 21 21 20 20 21 21 21 21 21 21 22 22 22 21 21 21 21 22 22 21 20 21 21 21
20 21 21 22 22 22 23 23 23 23 23 23 23 22 22 22 23 23 23 23 23 23 23 23 23 23 24 23 23 23 23 22 22 22 22 22 23 23
22 23 23 23 23 24 24 25 25 25 25 24 24 24 24 24 25 24 25 25 25 25 24 24 24 25 25 25 24 24 23 23 23 23 23 23 23 24
24 24 24 24 25 26 26 26 26 26 26 26 26 26 26 26 26 26 26 26 26 26 25 25 26 26 26 26 25 24 23 24 24 25 25 25 24 24
25 25 25 26 27 28 28 27 27 26 26 26 27 27 27 28 28 28 28 27 28 28 27 27 27 27 27 26 27 26 26 25 26 26 26 26 26 26
27 27 27 27 28 28 28 28 28 27 27 27 27 28 29 30 30 30 29 29 29 29 29 29 28 28 27 27 27 27 27 27 28 28 27 27 27 27
28 28 29 29 29 29 29 29 29 29 28 29 29 30 29 30 31 31 31 30 30 30 31 30 30 29 29 28 28 28 28 28 29 29 28 28 28 28
30 30 31 32 31 31 30 30 30 30 31 31 31 31 30 30 30 31 31 31 31 31 32 31 31 31 30 30 30 30 29 29 28 28 28 28 29 29
32 32 32 32 32 32 33 33 33 33 33 33 33 32 32 32 31 31 31 32 32 32 33 33 32 32 32 31 31 31 29 29 29 29 29 29 29 29
34 34 34 33 34 34 34 34 34 34 35 35 34 34 33 34 33 33 33 33 33 33 34 33 32 32 32 32 32 31 30 30 30 30 30 31 31 31
35 35 35 35 35 35 35 35 34 35 35 35 35 35 35 35 35 35 34 34 33 32 32 33 32 32 32 32 32 32 31 31 31 31 31 31 32 31
38 37 37 37 37 37 36 36 36 35 35 35 35 35 34 34 34 34 34 34 33 33 32 33 32 32 32 31 31 32 31 31 31 31 31 31 32 32
39 39 38 38 38 37 37 37 37 37 36 35 35 34 34 33 33 33 33 33 33 33 33 33 33 32 32 31 31 31 31 31 31 30 31 31 31 31
40 40 39 38 38 37 36 36 37 37 36 36 36 35 34 33 33 32 32 32 32 33 33 32 32 32 33 32 32 32 32 31 30 30 31 30 30 31
39 39 39 38 37 37 36 36 36 36 37 37 36 35 35 35 34 32 32 33 33 33 33 33 33 34 34 33 32 31 31 31 31 31 31 31 31 31
39 39 38 38 37 37 36 36 37 37 37 37 36 35 35 35 35 34 33 33 32 32 31 32 32 33 33 32 32 32 32 32 32 32 32 31 31 31
39 39 38 38 37 36 36 35 36 36 37 36 35 35 35 35 34 33 33 32 32 31 31 31 31 32 32 31 31 31 32 32 32 32 32 31 31 31
39 38 38 37 36 36 36 36 36 36 36 36 35 34 34 33 32 32 32 31 30 30 30 30 30 30 30 29 30 31 31 31 31 30 30 30 30 30
37 36 36 36 37 37 37 37 36 35 34 34 34 33 33 32 31 30 30 29 29 29 29 29 29 29 29 29 30 30 31 30 30 29 29 29 29 29
35 35 35 36 36 36 36 36 35 34 33 33 32 32 32 30 29 28 28 28 28 29 29 29 29 28 29 29 29 29 29 29 29 28 28 29 29 29
34 34 35 35 35 35 34 34 33 33 32 32 31 30 29 29 27 26 26 26 27 28 28 28 28 28 28 28 29 29 28 27 27 28 28 28 27 26
33 33 33 33 33 33 32 31 31 31 31 30 29 28 28 27 26 26 26 27 27 27 26 27 27 27 27 28 28 27 26 27 27 27 27 27 26 26